Regional Weather Roundup
Issued by NWS Newport/Morehead, NC

Current Version | Previous Version | Graphics & Text | Print | Product List | Glossary On
Versions: 1 2 3 4 5 6 7 8 9 10 11 12 13 14 15 16 17 18 19 20 21 22 23 24 25 26 27 28 29 30 31 32 33 34 35 36 37 38 39 40 41 42 43 44 45 46 47 48 49 50
000 ASUS42 KMHX 191222 RWRMHX WEATHER ROUNDUP FOR EASTERN NORTH CAROLINA NATIONAL WEATHER SERVICE NEWPORT/MOREHEAD CITY NC 800 AM EDT FRI SEP 19 2014 NOTE: "FAIR" INDICATES FEW OR NO CLOUDS BELOW 12,000 FEET WITH NO SIGNIFICANT WEATHER AND/OR OBSTRUCTIONS TO VISIBILITY NCZ015>017-031-032-045>047-102-103-191300- NORTH COAST CITY SKY/WX TMP DP RH WIND PRES REMARKS EDENTON SUNNY 64 61 91 NE3 30.17R ELIZABETH CITY SUNNY 65 62 90 NW3 30.17R KITTY HAWK SUNNY 73 58 59 E7 30.16R MANTEO SUNNY 72 58 61 NE9 30.17R $$ NCZ045>047-081-094-103-104-191300- CENTRAL COAST CITY SKY/WX TMP DP RH WIND PRES REMARKS FRISCO MOSUNNY 71 62 73 NE8 30.13R SWANQUARTER N/A 68 N/A N/A NE6 30.12R $$ NCZ095-097-098-100-101-191300- SOUTHERN COAST CITY SKY/WX TMP DP RH WIND PRES REMARKS BEAUFORT MOSUNNY 70 64 81 NE7 30.13R CEDAR ISLAND N/A 75 N/A N/A N17 30.18R JACKSONVILLE MOSUNNY 66 61 84 NE5 30.12R NEWPORT NOT AVBL PINEY ISLAND MOSUNNY 76 63 64 NE15 30.13R WILMINGTON PTSUNNY 67 62 84 NE9 30.10R $$ NCZ011>013-027>030-043-044-078>080-089-090>093-098-191300- COASTAL PLAIN CITY SKY/WX TMP DP RH WIND PRES REMARKS AHOSKIE SUNNY 61 58 90 CALM 30.18R CLINTON CLOUDY 66 63 87 NE5 30.14R ELIZABETHTOWN CLOUDY 65 61 88 CALM 30.12R GOLDSBORO CLOUDY 64 63 97 CALM 30.13R GREENVILLE MOSUNNY 63 59 88 CALM 30.16R HAVELOCK MOSUNNY 69 64 84 NE12 30.14R KENANSVILLE PTSUNNY 65 61 89 CALM 30.15R KINSTON PTSUNNY 64 61 88 NE3 30.16R NEW BERN PTSUNNY 69 61 75 NE8 30.15R RICHLANDS PTSUNNY 64 59 82 NE8 30.14R ROANOKE RAPIDS NOT AVBL ROCKY MOUNT CLOUDY 64 60 87 NE5 30.16R WASHINGTON MOSUNNY 64 59 83 CALM 30.16R WHITEVILLE CLOUDY 65 60 82 NE8 30.11R $$ AMZ130-135-150-152-154-156-158-170-250-252-270-ANZ085-086-088-633-658-670-191300- MARINE OBSERVATIONS STATION/POSITION TIME TEMP WIND PRES WAVE SWELL AIR SEA DIR/SP/G HT/PER HT/PER (UTC) (F) (DEG/KT/KT) (MB) (FT/S) (FT/S) CHESAPEAKE LIGHT 1200 71 70/ 9/ 10 1022.5 BUOY 44014 1200 73 76 50/ 14/ 17 1020.9 4/10 3/10 DUCK 1200 72 75 70/ 13/ 15 1020.8 2E DUCK 1200 N/A 3/11 2/11 OREGON INLET 1200 73 73 50/ 10/ 14 1021.0 BUOY 44095 1200 76 N/A 5/ 8 2/12 20E OREGON INLET NOT AVBL HATTERAS CG 1200 73 75 40/ 11/ 20 1020.6 DIAMOND BUOY 1200 77 50/ 17/ 21 1019.2 5/ 7 CAPE LOOKOUT 1200 74 40/ 17/ 21 1019.7 BEAUFORT LAB 1200 70 77 30/ 6/ 8 1019.5 30 SE NEW RIVER 1200 77 83 50/ 19/ 23 1018.9 4/ 5 2/10 5 SE WRIGHTSVILL 1200 73 80 60/ 16/ 19 N/A BUOY 41002 1144 79 82 80/ 16/ 17 1017.4 4/ 6 2/11 BUOY 41004 1200 80 83 70/ 12/ 14 1016.2 4/ 6 3/ 6 $$

USA.gov is the U.S. government's official web portal to all federal, state and local government web resources and services.